Terug naar catalogus

THORAD AGENA D DEB

ActiefSSO
NORAD 4992·DEBRIS·🇺🇸 United States

Gelanceerd Apr 8, 1970 vanaf Vandenberg Space Force Base

Loading…

Volgende Passages (komende 24 uur)

TLE

VersSource: Space-Track

Epoch: Sep 14, 2026, 13:22 UTC

1 04992U 70025HN  26257.55721117  .00000078  00000-0  16467-3 0  9991
2 04992 100.0982 111.9970 0015698 129.0784 259.6708 13.61171219795352

Volg THORAD AGENA D DEB in realtime met AllMySat

Download on the App Store